| time (UTC) | temp F | wind direction | speed MPH | gust MPH | rain 1hr in | rain 24hr in | rain mn in | humidity % | barometer mb |
| 20260904231532 | 99 | 174 | 4.0 | 10.0 | 0.00 | 0.00 | 0.00 | 39 | 1013.5 |
| 20260904230034 | 99 | 148 | 1.0 | 9.0 | 0.00 | 0.00 | 0.00 | 40 | 1013.4 |
| 20260904224529 | 100 | 207 | 4.0 | 12.0 | 0.00 | 0.00 | 0.00 | 39 | 1013.5 |
| 20260904223024 | 99 | 230 | 4.0 | 10.0 | 0.00 | 0.00 | 0.00 | 41 | 1013.6 |
| 20260904221523 | 98 | 224 | 5.0 | 8.0 | 0.00 | 0.00 | 0.00 | 41 | 1013.5 |
| 20260904220032 | 101 | 186 | 7.0 | 10.0 | 0.00 | 0.00 | 0.00 | 39 | 1013.6 |
| 20260904214534 | 101 | 188 | 10.0 | 16.0 | 0.00 | 0.00 | 0.00 | 39 | 1013.9 |
| 20260904213033 | 101 | 219 | 5.0 | 15.0 | 0.00 | 0.00 | 0.00 | 39 | 1014.0 |
| 20260904211528 | 101 | 189 | 9.0 | 14.0 | 0.00 | 0.00 | 0.00 | 40 | 1014.2 |
| 20260904210029 | 100 | 193 | 10.0 | 15.0 | 0.00 | 0.00 | 0.00 | 40 | 1014.5 |
| 20260904204531 | 101 | 185 | 11.0 | 16.0 | 0.00 | 0.00 | 0.00 | 40 | 1014.7 |
| 20260904203036 | 101 | 229 | 9.0 | 15.0 | 0.00 | 0.00 | 0.00 | 40 | 1014.9 |
| 20260904201526 | 101 | 224 | 10.0 | 15.0 | 0.00 | 0.00 | 0.00 | 41 | 1015.1 |
| 20260904200030 | 100 | 203 | 5.0 | 9.0 | 0.00 | 0.00 | 0.00 | 41 | 1015.3 |
| 20260904194536 | 99 | 169 | 7.0 | 12.0 | 0.00 | 0.00 | 0.00 | 41 | 1015.5 |
| 20260904193030 | 99 | 158 | 6.0 | 10.0 | 0.00 | 0.00 | 0.00 | 42 | 1015.7 |
| 20260904191534 | 98 | 201 | 6.0 | 12.0 | 0.00 | 0.00 | 0.00 | 42 | 1015.8 |
| 20260904190029 | 98 | 210 | 4.0 | 13.0 | 0.00 | 0.00 | 0.00 | 43 | 1016.0 |
| 20260904184531 | 97 | 354 | 3.0 | 15.0 | 0.00 | 0.00 | 0.00 | 44 | 1016.0 |
| 20260904183030 | 96 | 180 | 4.0 | 10.0 | 0.00 | 0.00 | 0.00 | 46 | 1016.3 |
| 20260904181535 | 99 | 203 | 8.0 | 16.0 | 0.00 | 0.00 | 0.00 | 44 | 1016.6 |
| 20260904180025 | 95 | 219 | 9.0 | 18.0 | 0.00 | 0.00 | 0.00 | 48 | 1016.7 |
| 20260904174520 | 95 | 192 | 6.0 | 9.0 | 0.00 | 0.00 | 0.00 | 48 | 1017.1 |
| 20260904173010 | 95 | 198 | 5.0 | 10.0 | 0.00 | 0.00 | 0.00 | 46 | 1017.2 |
| 20260904171519 | 95 | 156 | 6.0 | 15.0 | 0.00 | 0.00 | 0.00 | 49 | 1017.5 |
| 20260904170019 | 93 | 203 | 9.0 | 14.0 | 0.00 | 0.01 | 0.00 | 52 | 1017.6 |
| 20260904164508 | 94 | 168 | 6.0 | 10.0 | 0.00 | 0.02 | 0.00 | 52 | 1017.7 |
| 20260904163019 | 92 | 155 | 5.0 | 10.0 | 0.00 | 0.02 | 0.00 | 56 | 1017.7 |
| 20260904161529 | 89 | 226 | 2.0 | 6.0 | 0.00 | 0.02 | 0.00 | 62 | 1017.6 |
| 20260904160017 | 91 | 210 | 8.0 | 10.0 | 0.00 | 0.02 | 0.00 | 61 | 1017.8 |
| 20260904154535 | 89 | 143 | 3.0 | 6.0 | 0.00 | 0.02 | 0.00 | 63 | 1017.8 |
| 20260904153035 | 89 | 229 | 3.0 | 9.0 | 0.00 | 0.02 | 0.00 | 64 | 1017.8 |
| 20260904151519 | 86 | 273 | 2.0 | 7.0 | 0.00 | 0.02 | 0.00 | 71 | 1017.7 |
| 20260904150013 | 86 | 255 | 3.0 | 10.0 | 0.00 | 0.02 | 0.00 | 72 | 1017.6 |
| 20260904144514 | 85 | 259 | 4.0 | 8.0 | 0.00 | 0.02 | 0.00 | 74 | 1017.7 |
| 20260904143028 | 84 | 210 | 6.0 | 9.0 | 0.00 | 0.02 | 0.00 | 77 | 1017.7 |
| 20260904141529 | 83 | 193 | 4.0 | 7.0 | 0.00 | 0.02 | 0.00 | 79 | 1017.6 |
| 20260904140016 | 81 | 181 | 4.0 | 7.0 | 0.00 | 0.02 | 0.00 | 81 | 1017.5 |
| 20260904134514 | 80 | 176 | 2.0 | 7.0 | 0.00 | 0.02 | 0.00 | 83 | 1017.4 |
| 20260904133019 | 79 | 178 | 4.0 | 5.0 | 0.00 | 0.02 | 0.00 | 85 | 1017.4 |
| 20260904131523 | 77 | 150 | 1.0 | 5.0 | 0.00 | 0.02 | 0.00 | 86 | 1017.4 |
| 20260904130026 | 76 | 151 | 1.0 | 4.0 | 0.00 | 0.02 | 0.00 | 88 | 1017.2 |
| 20260904124518 | 75 | 135 | 2.0 | 5.0 | 0.00 | 0.02 | 0.00 | 89 | 1017.0 |
| 20260904123027 | 74 | 130 | 2.0 | 4.0 | 0.00 | 0.02 | 0.00 | 89 | 1016.8 |
| 20260904121508 | 73 | 129 | 1.0 | 3.0 | 0.00 | 0.02 | 0.00 | 90 | 1016.8 |
| 20260904120029 | 73 | 129 | 0.0 | 2.0 | 0.00 | 0.02 | 0.00 | 90 | 1016.7 |
| 20260904114504 | 73 | 129 | 0.0 | 2.0 | 0.00 | 0.02 | 0.00 | 90 | 1016.7 |
| 20260904113015 | 74 | 129 | 1.0 | 2.0 | 0.00 | 0.02 | 0.00 | 89 | 1016.8 |
| 20260904111506 | 74 | 129 | 1.0 | 3.0 | 0.00 | 0.02 | 0.00 | 89 | 1016.7 |
| 20260904110011 | 74 | 129 | 1.0 | 2.0 | 0.00 | 0.02 | 0.00 | 88 | 1016.6 |
| 20260904104508 | 74 | 129 | 1.0 | 3.0 | 0.00 | 0.03 | 0.00 | 88 | 1016.6 |
| 20260904103005 | 74 | 132 | 2.0 | 3.0 | 0.00 | 0.03 | 0.00 | 88 | 1016.5 |
| 20260904101514 | 74 | 135 | 1.0 | 5.0 | 0.00 | 0.03 | 0.00 | 88 | 1016.4 |
| 20260904100027 | 74 | 122 | 2.0 | 3.0 | 0.00 | 0.03 | 0.00 | 88 | 1016.3 |
| 20260904094503 | 74 | 137 | 2.0 | 4.0 | 0.00 | 0.03 | 0.00 | 86 | 1016.2 |
| 20260904093022 | 74 | 152 | 1.0 | 3.0 | 0.00 | 0.03 | 0.00 | 87 | 1016.2 |
| 20260904091504 | 74 | 141 | 3.0 | 5.0 | 0.00 | 0.03 | 0.00 | 87 | 1016.0 |
| 20260904090018 | 74 | 150 | 3.0 | 6.0 | 0.00 | 0.03 | 0.00 | 87 | 1015.9 |
| 20260904084526 | 74 | 151 | 2.0 | 3.0 | 0.00 | 0.03 | 0.00 | 87 | 1015.8 |
| 20260904083008 | 74 | 150 | 2.0 | 4.0 | 0.00 | 0.03 | 0.00 | 87 | 1015.8 |
| 20260904081508 | 74 | 166 | 0.0 | 2.0 | 0.00 | 0.04 | 0.00 | 85 | 1015.7 |
| 20260904080016 | 75 | 166 | 1.0 | 2.0 | 0.00 | 0.04 | 0.00 | 85 | 1015.6 |
| 20260904074511 | 75 | 166 | 2.0 | 4.0 | 0.00 | 0.08 | 0.00 | 85 | 1015.7 |
| 20260904073033 | 74 | 152 | 1.0 | 3.0 | 0.00 | 0.23 | 0.00 | 84 | 1015.8 |
| 20260904071508 | 75 | 202 | 0.0 | 1.0 | 0.00 | 0.35 | 0.00 | 82 | 1015.8 |
| 20260904070030 | 76 | 202 | 1.0 | 2.0 | 0.00 | 0.36 | 0.00 | 81 | 1015.8 |
| 20260904064519 | 76 | 202 | 0.0 | 2.0 | 0.00 | 0.42 | 0.00 | 81 | 1015.9 |
| 20260904063008 | 76 | 202 | 0.0 | 0.0 | 0.00 | 0.42 | 0.00 | 81 | 1015.8 |
| 20260904061529 | 76 | 202 | 0.0 | 0.0 | 0.00 | 0.42 | 0.00 | 81 | 1015.8 |
| 20260904060008 | 76 | 202 | 0.0 | 1.0 | 0.00 | 0.42 | 0.00 | 81 | 1015.8 |
| 20260904054520 | 76 | 202 | 0.0 | 2.0 | 0.00 | 0.42 | 0.00 | 81 | 1015.8 |
| 20260904053032 | 76 | 202 | 1.0 | 2.0 | 0.00 | 0.42 | 0.00 | 82 | 1015.6 |
| 20260904051510 | 78 | 202 | 1.0 | 4.0 | 0.00 | 0.42 | 0.00 | 79 | 1015.6 |
| 20260904050030 | 78 | 202 | 2.0 | 4.0 | 0.00 | 0.42 | 0.00 | 77 | 1015.5 |
| 20260904044518 | 79 | 202 | 1.0 | 2.0 | 0.00 | 0.42 | 0.42 | 76 | 1015.6 |
| 20260904043014 | 78 | 201 | 1.0 | 2.0 | 0.00 | 0.42 | 0.42 | 77 | 1015.6 |
| 20260904041524 | 79 | 201 | 1.0 | 3.0 | 0.00 | 0.42 | 0.42 | 75 | 1015.7 |
| 20260904040031 | 80 | 204 | 2.0 | 3.0 | 0.00 | 0.42 | 0.42 | 74 | 1015.8 |
| 20260904034522 | 80 | 198 | 3.0 | 4.0 | 0.00 | 0.42 | 0.42 | 74 | 1015.7 |
| 20260904033011 | 81 | 212 | 3.0 | 5.0 | 0.00 | 0.42 | 0.42 | 72 | 1015.8 |
| 20260904031510 | 81 | 213 | 3.0 | 6.0 | 0.00 | 0.42 | 0.42 | 70 | 1015.7 |
| 20260904030025 | 81 | 196 | 5.0 | 6.0 | 0.00 | 0.42 | 0.42 | 72 | 1015.5 |
| 20260904024533 | 81 | 185 | 4.0 | 6.0 | 0.00 | 0.42 | 0.42 | 71 | 1015.3 |
| 20260904023018 | 82 | 177 | 4.0 | 5.0 | 0.00 | 0.42 | 0.42 | 70 | 1015.1 |
| 20260904021528 | 82 | 176 | 3.0 | 5.0 | 0.00 | 0.42 | 0.42 | 69 | 1014.9 |
| 20260904020023 | 83 | 185 | 3.0 | 4.0 | 0.00 | 0.42 | 0.42 | 67 | 1014.7 |
| 20260904014524 | 83 | 191 | 4.0 | 6.0 | 0.00 | 0.42 | 0.42 | 66 | 1014.4 |
| 20260904013031 | 85 | 199 | 4.0 | 5.0 | 0.00 | 0.42 | 0.42 | 64 | 1014.1 |
| 20260904011516 | 86 | 221 | 3.0 | 5.0 | 0.00 | 0.42 | 0.42 | 61 | 1014.0 |
| 20260904010027 | 86 | 200 | 5.0 | 6.0 | 0.00 | 0.42 | 0.42 | 61 | 1013.8 |
| 20260904004509 | 87 | 185 | 6.0 | 10.0 | 0.00 | 0.42 | 0.42 | 58 | 1013.9 |
| 20260904003018 | 88 | 189 | 5.0 | 11.0 | 0.00 | 0.42 | 0.42 | 57 | 1013.8 |
| 20260904001507 | 89 | 197 | 11.0 | 15.0 | 0.00 | 0.42 | 0.42 | 55 | 1013.8 |
| 20260904000014 | 91 | 209 | 10.0 | 14.0 | 0.00 | 0.42 | 0.42 | 53 | 1013.8 |
| 20260903234520 | 92 | 195 | 10.0 | 17.0 | 0.00 | 0.42 | 0.42 | 51 | 1013.6 |
| 20260903233007 | 94 | 173 | 8.0 | 19.0 | 0.00 | 0.42 | 0.42 | 50 | 1013.6 |